| time (UTC) | temp F | wind direction | speed MPH | gust MPH | rain 1hr in | rain 24hr in | rain mn in | humidity % | barometer mb |
| 20260509211538 | 70 | 134 | 1.0 | 3.0 | 0.00 | 0.00 | 0.00 | 58 | 1007.7 |
| 20260509210040 | 70 | 135 | 2.0 | 4.0 | 0.00 | 0.00 | 0.00 | 58 | 1007.7 |
| 20260509204536 | 70 | 129 | 0.0 | 3.0 | 0.00 | 0.00 | 0.00 | 60 | 1007.7 |
| 20260509203041 | 69 | 138 | 1.0 | 4.0 | 0.00 | 0.00 | 0.00 | 61 | 1007.8 |
| 20260509201534 | 68 | 125 | 0.0 | 3.0 | 0.00 | 0.00 | 0.00 | 63 | 1008.0 |
| 20260509200036 | 68 | 117 | 1.0 | 3.0 | 0.00 | 0.00 | 0.00 | 61 | 1008.2 |
| 20260509194530 | 68 | 124 | 1.0 | 4.0 | 0.00 | 0.00 | 0.00 | 61 | 1008.3 |
| 20260509193030 | 67 | 113 | 1.0 | 3.0 | 0.00 | 0.00 | 0.00 | 62 | 1008.4 |
| 20260509191527 | 68 | 140 | 1.0 | 4.0 | 0.00 | 0.00 | 0.00 | 60 | 1008.8 |
| 20260509190040 | 70 | 136 | 1.0 | 4.0 | 0.00 | 0.00 | 0.00 | 57 | 1009.0 |
| 20260509184533 | 69 | 143 | 1.0 | 4.0 | 0.00 | 0.00 | 0.00 | 59 | 1009.1 |
| 20260509183028 | 70 | 135 | 1.0 | 4.0 | 0.00 | 0.00 | 0.00 | 57 | 1009.2 |
| 20260509181521 | 72 | 132 | 2.0 | 6.0 | 0.00 | 0.00 | 0.00 | 52 | 1009.4 |
| 20260509180017 | 72 | 154 | 3.0 | 9.0 | 0.00 | 0.00 | 0.00 | 42 | 1009.6 |
| 20260509174523 | 72 | 210 | 3.0 | 8.0 | 0.00 | 0.00 | 0.00 | 40 | 1009.7 |
| 20260509173016 | 73 | 234 | 1.0 | 17.0 | 0.00 | 0.00 | 0.00 | 41 | 1009.7 |
| 20260509171514 | 72 | 188 | 1.0 | 7.0 | 0.00 | 0.00 | 0.00 | 40 | 1009.7 |
| 20260509170026 | 72 | 240 | 2.0 | 9.0 | 0.00 | 0.00 | 0.00 | 39 | 1009.8 |
| 20260509164511 | 72 | 221 | 2.0 | 11.0 | 0.00 | 0.00 | 0.00 | 38 | 1009.8 |
| 20260509163010 | 73 | 255 | 3.0 | 7.0 | 0.00 | 0.00 | 0.00 | 37 | 1009.7 |
| 20260509161509 | 73 | 249 | 3.0 | 15.0 | 0.00 | 0.00 | 0.00 | 38 | 1009.9 |
| 20260509160005 | 73 | 244 | 4.0 | 11.0 | 0.00 | 0.00 | 0.00 | 40 | 1010.3 |
| 20260509154601 | 72 | 217 | 4.0 | 11.0 | 0.00 | 0.00 | 0.00 | 40 | 1010.3 |
| 20260509154502 | 72 | 189 | 3.0 | 11.0 | 0.00 | 0.00 | 0.00 | 40 | 1010.3 |
| 20260509153101 | 71 | 248 | 4.0 | 9.0 | 0.00 | 0.00 | 0.00 | 42 | 1010.1 |
| 20260509151559 | 70 | 225 | 2.0 | 8.0 | 0.00 | 0.00 | 0.00 | 47 | 1010.5 |
| 20260509150050 | 70 | 174 | 2.0 | 8.0 | 0.00 | 0.00 | 0.00 | 47 | 1010.7 |
| 20260509144550 | 68 | 254 | 3.0 | 9.0 | 0.00 | 0.00 | 0.00 | 48 | 1011.0 |
| 20260509143044 | 67 | 228 | 1.0 | 6.0 | 0.00 | 0.00 | 0.00 | 50 | 1011.0 |
| 20260509141546 | 66 | 113 | 2.0 | 11.0 | 0.00 | 0.00 | 0.00 | 52 | 1011.1 |
| 20260509140038 | 65 | 217 | 2.0 | 8.0 | 0.00 | 0.00 | 0.00 | 52 | 1011.2 |
| 20260509134549 | 64 | 236 | 2.0 | 6.0 | 0.00 | 0.00 | 0.00 | 53 | 1011.2 |
| 20260509133035 | 64 | 219 | 2.0 | 6.0 | 0.00 | 0.00 | 0.00 | 54 | 1011.2 |
| 20260509131549 | 63 | 142 | 2.0 | 11.0 | 0.00 | 0.00 | 0.00 | 55 | 1011.3 |
| 20260509130041 | 62 | 188 | 2.0 | 6.0 | 0.00 | 0.00 | 0.00 | 56 | 1011.3 |
| 20260509124531 | 62 | 222 | 2.0 | 7.0 | 0.00 | 0.00 | 0.00 | 57 | 1011.4 |
| 20260509123029 | 61 | 204 | 1.0 | 6.0 | 0.00 | 0.00 | 0.00 | 57 | 1011.5 |
| 20260509121522 | 60 | 214 | 1.0 | 7.0 | 0.00 | 0.00 | 0.00 | 60 | 1011.6 |
| 20260509120017 | 59 | 195 | 1.0 | 9.0 | 0.00 | 0.00 | 0.00 | 61 | 1011.6 |
| 20260509114515 | 59 | 214 | 1.0 | 6.0 | 0.00 | 0.00 | 0.00 | 62 | 1011.7 |
| 20260509113013 | 58 | 143 | 1.0 | 3.0 | 0.00 | 0.00 | 0.00 | 63 | 1011.8 |
| 20260509111511 | 58 | 221 | 2.0 | 6.0 | 0.00 | 0.00 | 0.00 | 62 | 1011.7 |
| 20260509110019 | 58 | 197 | 3.0 | 10.0 | 0.00 | 0.00 | 0.00 | 61 | 1011.7 |
| 20260509104513 | 58 | 119 | 0.0 | 5.0 | 0.00 | 0.00 | 0.00 | 61 | 1011.8 |
| 20260509103009 | 58 | 190 | 0.0 | 5.0 | 0.00 | 0.00 | 0.00 | 61 | 1011.5 |
| 20260509101518 | 58 | 219 | 0.0 | 4.0 | 0.00 | 0.00 | 0.00 | 60 | 1011.6 |
| 20260509100007 | 58 | 221 | 1.0 | 4.0 | 0.00 | 0.00 | 0.00 | 59 | 1011.3 |
| 20260509094506 | 58 | 186 | 0.0 | 4.0 | 0.00 | 0.00 | 0.00 | 59 | 1011.3 |
| 20260509093016 | 58 | 198 | 0.0 | 3.0 | 0.00 | 0.00 | 0.00 | 58 | 1011.2 |
| 20260509091507 | 58 | 201 | 1.0 | 3.0 | 0.00 | 0.00 | 0.00 | 57 | 1011.1 |
| 20260509090004 | 58 | 187 | 1.0 | 3.0 | 0.00 | 0.00 | 0.00 | 57 | 1011.2 |
| 20260509084505 | 58 | 171 | 1.0 | 3.0 | 0.00 | 0.00 | 0.00 | 58 | 1011.3 |
| 20260509083100 | 58 | 203 | 0.0 | 4.0 | 0.00 | 0.00 | 0.00 | 56 | 1011.3 |
| 20260509081600 | 58 | 148 | 1.0 | 4.0 | 0.00 | 0.00 | 0.00 | 55 | 1011.5 |
| 20260509080059 | 58 | 211 | 0.0 | 6.0 | 0.00 | 0.00 | 0.00 | 55 | 1011.7 |
| 20260509074604 | 58 | 209 | 1.0 | 4.0 | 0.00 | 0.00 | 0.00 | 54 | 1011.6 |
| 20260509073055 | 58 | 210 | 2.0 | 7.0 | 0.00 | 0.00 | 0.00 | 54 | 1011.7 |
| 20260509071600 | 58 | 204 | 2.0 | 8.0 | 0.00 | 0.00 | 0.00 | 54 | 1011.9 |
| 20260509064552 | 57 | 201 | 1.0 | 5.0 | 0.00 | 0.00 | 0.00 | 55 | 1011.9 |
| 20260509063047 | 56 | 143 | 0.0 | 6.0 | 0.00 | 0.00 | 0.00 | 57 | 1012.0 |
| 20260509061548 | 56 | 200 | 0.0 | 3.0 | 0.00 | 0.00 | 0.00 | 58 | 1012.1 |
| 20260509060045 | 56 | 199 | 0.0 | 3.0 | 0.00 | 0.00 | 0.00 | 57 | 1012.2 |
| 20260509054604 | 56 | 168 | 0.0 | 2.0 | 0.00 | 0.00 | 0.00 | 56 | 1012.3 |
| 20260509053136 | 56 | 167 | 1.0 | 3.0 | 0.00 | 0.00 | 0.00 | 57 | 1012.4 |
| 20260509051547 | 56 | 219 | 0.0 | 5.0 | 0.00 | 0.00 | 0.00 | 57 | 1012.4 |
| 20260509050046 | 56 | 193 | 0.0 | 2.0 | 0.00 | 0.00 | 0.00 | 57 | 1012.4 |
| 20260509044538 | 57 | 193 | 0.0 | 2.0 | 0.00 | 0.00 | 0.00 | 54 | 1012.3 |
| 20260509043037 | 57 | 154 | 1.0 | 4.0 | 0.00 | 0.00 | 0.00 | 53 | 1012.3 |
| 20260509041534 | 57 | 200 | 1.0 | 5.0 | 0.00 | 0.00 | 0.00 | 53 | 1012.4 |
| 20260509040034 | 58 | 217 | 1.0 | 5.0 | 0.00 | 0.00 | 0.00 | 51 | 1012.5 |
| 20260509034531 | 58 | 215 | 1.0 | 5.0 | 0.00 | 0.00 | 0.00 | 51 | 1012.7 |
| 20260509033030 | 58 | 221 | 1.0 | 8.0 | 0.00 | 0.00 | 0.00 | 50 | 1012.6 |
| 20260509031530 | 58 | 224 | 2.0 | 9.0 | 0.00 | 0.00 | 0.00 | 50 | 1012.7 |
| 20260509030035 | 59 | 212 | 2.0 | 6.0 | 0.00 | 0.00 | 0.00 | 49 | 1012.9 |
| 20260509024532 | 58 | 195 | 1.0 | 5.0 | 0.00 | 0.00 | 0.00 | 50 | 1012.7 |
| 20260509023040 | 58 | 160 | 1.0 | 4.0 | 0.00 | 0.00 | 0.00 | 50 | 1012.7 |
| 20260509021528 | 58 | 221 | 1.0 | 6.0 | 0.00 | 0.00 | 0.00 | 51 | 1012.5 |
| 20260509020028 | 58 | 218 | 0.0 | 3.0 | 0.00 | 0.00 | 0.00 | 53 | 1012.5 |
| 20260509014533 | 57 | 172 | 0.0 | 1.0 | 0.00 | 0.00 | 0.00 | 58 | 1012.5 |
| 20260509013028 | 57 | 172 | 0.0 | 2.0 | 0.00 | 0.00 | 0.00 | 57 | 1012.5 |
| 20260509011526 | 58 | 172 | 0.0 | 0.0 | 0.00 | 0.00 | 0.00 | 59 | 1012.5 |
| 20260509010026 | 59 | 172 | 0.0 | 1.0 | 0.00 | 0.00 | 0.00 | 63 | 1012.2 |
| 20260509004527 | 59 | 172 | 0.0 | 0.0 | 0.00 | 0.00 | 0.00 | 66 | 1012.1 |
| 20260509003041 | 60 | 172 | 0.0 | 0.0 | 0.00 | 0.00 | 0.00 | 67 | 1012.0 |
| 20260509001522 | 60 | 172 | 0.0 | 2.0 | 0.00 | 0.00 | 0.00 | 65 | 1011.9 |
| 20260509000022 | 60 | 160 | 0.0 | 2.0 | 0.00 | 0.00 | 0.00 | 64 | 1011.8 |
| 20260508234526 | 61 | 160 | 0.0 | 4.0 | 0.00 | 0.00 | 0.00 | 63 | 1011.8 |
| 20260508233020 | 61 | 130 | 1.0 | 3.0 | 0.00 | 0.00 | 0.00 | 62 | 1011.7 |
| 20260508231519 | 61 | 141 | 2.0 | 4.0 | 0.00 | 0.00 | 0.00 | 59 | 1011.5 |
| 20260508230018 | 61 | 143 | 2.0 | 4.0 | 0.00 | 0.00 | 0.00 | 59 | 1011.5 |
| 20260508224518 | 62 | 139 | 3.0 | 6.0 | 0.00 | 0.00 | 0.00 | 57 | 1011.5 |
| 20260508223019 | 63 | 134 | 3.0 | 8.0 | 0.00 | 0.00 | 0.00 | 55 | 1011.5 |
| 20260508221521 | 63 | 132 | 3.0 | 6.0 | 0.00 | 0.00 | 0.00 | 54 | 1011.4 |
| 20260508220017 | 66 | 138 | 3.0 | 5.0 | 0.00 | 0.00 | 0.00 | 49 | 1011.5 |
| 20260508214614 | 70 | 146 | 2.0 | 5.0 | 0.00 | 0.00 | 0.00 | 41 | 1011.4 |
| 20260508213013 | 70 | 233 | 1.0 | 10.0 | 0.00 | 0.00 | 0.00 | 27 | 1011.2 |